Vertical_Velocity
-1 -1 -2 0 3 2 -1 -2 -2 -0 -2 1 0 -1 -0 -1 -1 -4 -5 -4 -2 -0 -1 -1 0 0 -1 2 0 2 2 0 2 2 4 5 5 3 2 1 0 -0 -0 0
-1 -1 0 -1 -1 -3 -2 -2 -0 -1 0 -0 -2 -2 3 1 1 0 1 -1 0 -1 -6 -1 1 1 -1 0 1 2 2 0 1 1 1 2 4 2 1 0 -1 -1 -0 -0
1 1 0 -0 -1 -1 -1 -1 -0 1 0 -1 -3 0 1 2 2 1 1 -2 -0 -2 3 5 3 0 -0 1 2 2 -0 -1 3 -0 2 2 2 2 0 -1 2 2 1 0
-1 -1 -0 -1 -1 -1 -3 -1 -1 0 0 -2 -1 1 4 -0 2 1 1 -1 -0 -1 -1 2 -1 2 3 -1 -1 3 1 -2 -2 1 1 2 1 2 -0 0 1 -1 -1 -0
6 -0 -0 0 -1 1 -1 -1 -2 -1 1 -1 -2 -3 7 3 1 1 3 2 2 1 -2 2 2 5 -2 3 7 1 2 2 0 2 3 2 3 0 1 1 1 -1 -0 -0
-2 3 -1 1 0 -0 1 -0 -0 -1 -1 -2 -2 -3 1 3 -2 2 1 2 2 1 -1 -3 1 2 2 1 1 1 1 2 2 1 2 2 3 0 2 0 1 1 1 2
1 -1 -4 0 2 -0 1 1 1 -2 -1 0 -2 -3 -0 -1 -1 2 3 2 3 4 2 1 0 4 4 2 2 3 1 -0 2 2 3 3 2 3 3 2 1 0 1 1
-1 2 4 4 1 2 -1 2 1 -1 1 3 -1 0 -2 -3 -2 5 1 2 3 4 3 3 2 2 4 5 1 2 -1 -0 -2 1 2 -0 2 0 -0 1 -1 -0 -1 -1
-2 1 2 -1 1 1 2 -0 2 2 -0 1 1 1 1 -4 -1 8 2 -1 2 2 3 3 3 2 1 1 3 2 1 -1 0 -0 0 3 0 2 -1 -2 3 3 1 -1
-2 1 2 -2 0 2 2 1 -1 2 -0 3 -4 4 -3 -10 8 6 5 0 -0 -0 -0 3 2 2 2 1 1 2 -0 1 0 1 1 -0 1 2 1 0 2 3 1 -1
1 -0 4 5 -1 2 1 -2 -0 3 3 4 -2 -1 0 -4 1 1 1 1 -1 0 0 2 2 3 2 4 1 0 1 -0 -2 0 3 7 4 1 2 5 3 3 1 -1
2 -6 4 2 1 -1 2 -1 1 3 2 3 3 -2 -0 -1 -3 -1 3 4 3 2 1 1 1 1 2 2 3 3 2 0 1 -0 -0 -0 -0 -3 0 2 -3 -4 2 1
4 -8 -1 2 -1 0 1 2 3 3 7 6 6 -3 -3 -4 -5 -2 0 5 8 3 -2 -1 1 1 1 1 1 1 4 3 2 2 2 0 1 3 2 2 -0 -1 0 1
-1 4 -3 3 -5 0 5 0 3 3 2 11 9 3 -6 -4 -5 1 2 2 2 -2 0 4 6 3 1 2 1 -0 0 -0 1 1 2 2 -1 -1 1 3 2 1 -2 1
-4 2 -4 1 4 -4 -2 3 4 -6 8 -4 23 9 -19 -9 1 1 -2 -1 -2 4 4 4 5 4 1 1 1 1 2 2 2 1 0 0 -1 -1 2 4 -1 -0 2 -1
-12 -0 -5 7 1 -5 2 5 -7 10 0 -3 8 -1 -7 5 3 8 6 -8 -10 0 4 5 8 2 1 1 1 0 -1 -1 1 1 0 1 1 0 1 2 1 1 0 0
4 -4 -3 5 2 5 -1 -0 -1 -6 -1 2 4 -2 -3 -2 1 8 -3 2 -2 -3 -2 11 16 -6 -6 -4 -1 2 -1 -1 -1 -1 -3 -0 1 1 -1 -1 1 1 1 -1
3 -0 -5 -3 6 1 -4 -2 4 -4 -1 2 2 0 -2 -1 -2 17 -14 8 -2 -3 -2 -3 0 8 2 1 -2 2 1 -1 -3 -4 0 -2 -1 -0 -0 1 0 -1 1 1
1 1 -1 -5 0 2 -6 -5 0 1 -2 -4 -0 -1 1 0 2 9 1 -4 -1 2 3 1 -1 3 4 4 -4 -3 1 -2 -0 -2 -0 -2 -3 0 -1 -1 -0 -1 1 -0
6 4 2 -2 2 0 -0 4 -2 -12 -10 2 -1 0 0 -4 -2 5 6 -2 -1 -8 -5 -3 -1 -2 -4 -0 -3 -2 -1 -3 -5 -5 0 1 -0 -3 -2 -3 -2 0 -3 3
-3 -2 -1 1 -3 -3 -1 3 17 -1 -9 0 -10 2 3 -2 -4 2 3 1 -2 -2 -6 -5 -10 -6 -1 -2 -2 -0 -0 4 -3 -2 -2 3 0 -3 -3 1 -2 -1 -4 -3
5 1 -0 -2 0 2 -9 -1 20 5 -3 -9 -4 -5 -0 0 3 -2 -3 -3 -2 -1 0 -2 -5 -3 -2 -0 -6 2 2 2 1 1 -1 -1 -0 -1 1 -1 6 -2 -1 -1
6 2 -2 -3 6 -1 4 -4 4 -13 -5 11 2 3 -2 -6 -4 -4 -1 -0 1 -0 -0 -2 -5 1 7 0 -5 -4 7 -2 -3 -1 -0 3 -0 -2 1 -0 2 6 -1 -1
11 1 -7 -10 12 -2 1 11 -13 2 -4 -1 -1 -3 4 -2 -2 -4 -3 0 -4 -3 -5 -7 -4 -2 -1 -1 -2 -5 -7 -7 -8 -6 -1 -3 -2 4 -1 -2 -0 1 6 2
12 -5 -6 1 3 -6 7 -2 -1 7 -3 -3 2 -5 -6 -5 -2 -9 -3 -2 -4 -3 -4 -5 -6 -5 5 1 1 -1 -1 -9 -10 -8 -4 0 -2 -1 4 5 1 -5 2 -1
3 -5 -12 2 2 -9 5 1 -3 1 1 -1 -5 3 -4 -16 -6 -2 -2 -7 -9 -5 -3 -6 -5 -8 -0 2 -0 -1 -7 -7 -4 -6 -5 -4 -4 1 2 2 8 -4 -3 2
Height
5837 5837 5835 5834 5833 5831 5829 5827 5825 5824 5823 5823 5822 5821 5822 5823 5824 5825 5828 5831 5833 5835 5838 5841 5843 5845 5848 5852 5855 5857 5860 5861 5864 5866 5867 5868 5871 5873 5876 5878 5881 5882 5884 5885
5837 5835 5834 5832 5830 5828 5827 5826 5825 5824 5822 5822 5821 5820 5821 5821 5822 5823 5824 5826 5828 5831 5833 5836 5839 5841 5844 5847 5851 5854 5857 5859 5861 5862 5864 5866 5868 5871 5873 5875 5877 5879 5881 5882
5836 5835 5833 5831 5829 5827 5826 5824 5823 5823 5822 5820 5820 5820 5820 5820 5820 5820 5822 5823 5825 5826 5829 5832 5835 5837 5840 5843 5847 5850 5853 5856 5858 5859 5861 5863 5865 5867 5869 5872 5874 5875 5877 5878
5833 5832 5831 5829 5828 5827 5824 5823 5821 5820 5820 5818 5817 5818 5819 5818 5818 5818 5819 5820 5821 5822 5824 5827 5830 5833 5838 5840 5843 5847 5850 5852 5854 5856 5858 5860 5861 5863 5866 5868 5870 5871 5872 5874
5832 5829 5828 5827 5826 5825 5824 5822 5820 5818 5817 5816 5815 5815 5817 5817 5816 5816 5816 5817 5818 5819 5820 5823 5826 5829 5833 5837 5840 5843 5847 5849 5851 5853 5855 5856 5858 5859 5861 5863 5865 5866 5867 5869
5827 5826 5825 5824 5823 5821 5820 5819 5817 5816 5815 5813 5811 5812 5812 5813 5812 5813 5813 5814 5814 5815 5816 5818 5821 5825 5828 5832 5835 5838 5841 5844 5846 5848 5850 5852 5853 5854 5856 5857 5859 5860 5862 5865
5821 5821 5819 5819 5818 5817 5816 5816 5814 5813 5812 5812 5809 5808 5808 5807 5807 5809 5810 5811 5812 5813 5813 5815 5817 5821 5824 5827 5828 5832 5835 5837 5839 5842 5844 5846 5846 5848 5850 5851 5853 5854 5856 5859
5814 5816 5815 5814 5813 5813 5811 5811 5810 5809 5809 5808 5806 5806 5804 5802 5802 5805 5806 5806 5807 5808 5809 5811 5812 5815 5818 5821 5823 5826 5829 5831 5832 5835 5837 5838 5840 5841 5843 5844 5846 5848 5850 5851
5805 5806 5807 5806 5805 5806 5805 5804 5805 5804 5804 5803 5802 5801 5799 5797 5798 5801 5801 5801 5802 5803 5804 5806 5807 5809 5811 5814 5817 5819 5822 5824 5826 5827 5829 5831 5832 5834 5835 5836 5838 5840 5842 5844
5796 5797 5797 5798 5798 5797 5797 5797 5797 5797 5797 5798 5796 5796 5793 5791 5795 5796 5797 5795 5795 5796 5797 5799 5801 5802 5804 5806 5809 5811 5813 5815 5818 5820 5822 5823 5824 5826 5828 5829 5831 5833 5834 5834
5787 5787 5789 5788 5788 5788 5788 5787 5788 5789 5789 5789 5788 5787 5787 5787 5788 5788 5790 5790 5789 5789 5790 5792 5793 5795 5796 5798 5799 5801 5804 5806 5808 5810 5813 5815 5815 5816 5818 5820 5821 5824 5825 5826
5778 5777 5778 5778 5778 5778 5779 5779 5779 5779 5782 5782 5782 5780 5778 5778 5779 5779 5780 5782 5783 5783 5782 5783 5784 5786 5787 5788 5790 5791 5793 5795 5798 5799 5801 5803 5805 5806 5808 5810 5811 5812 5814 5815
5769 5766 5768 5768 5768 5768 5768 5770 5770 5770 5772 5773 5773 5772 5769 5767 5767 5769 5770 5773 5775 5774 5775 5775 5776 5777 5777 5778 5778 5780 5781 5783 5785 5787 5789 5791 5793 5795 5796 5798 5799 5801 5803 5804
5758 5758 5757 5758 5757 5757 5759 5759 5760 5759 5760 5763 5762 5762 5759 5757 5757 5759 5760 5762 5764 5764 5765 5766 5767 5766 5766 5767 5768 5768 5769 5770 5772 5774 5775 5777 5779 5781 5784 5786 5787 5789 5791 5793
5744 5746 5745 5745 5747 5745 5743 5747 5749 5749 5749 5748 5753 5751 5746 5744 5746 5745 5748 5750 5752 5754 5755 5756 5757 5756 5755 5755 5756 5756 5757 5758 5758 5760 5761 5763 5765 5768 5770 5772 5773 5776 5779 5781
5733 5732 5732 5734 5733 5732 5733 5732 5734 5735 5734 5734 5734 5738 5736 5734 5736 5735 5737 5738 5739 5739 5741 5743 5743 5741 5742 5742 5743 5744 5744 5744 5745 5746 5747 5749 5751 5753 5755 5757 5759 5761 5763 5766
5719 5718 5716 5718 5719 5720 5718 5718 5719 5717 5720 5721 5719 5720 5724 5725 5723 5721 5721 5723 5723 5725 5726 5728 5729 5727 5727 5727 5727 5728 5729 5729 5730 5731 5732 5734 5736 5737 5739 5741 5743 5746 5748 5750
5705 5702 5702 5702 5702 5701 5702 5702 5700 5700 5702 5703 5704 5705 5707 5708 5708 5706 5706 5707 5708 5708 5708 5709 5711 5713 5713 5711 5711 5713 5713 5713 5714 5715 5717 5718 5720 5721 5723 5725 5726 5729 5731 5733
5690 5688 5687 5687 5687 5685 5684 5684 5684 5682 5684 5685 5685 5686 5687 5689 5691 5689 5689 5688 5689 5689 5689 5690 5691 5693 5695 5695 5694 5694 5696 5697 5698 5699 5701 5702 5703 5705 5706 5708 5709 5711 5714 5716
5677 5674 5674 5672 5671 5670 5671 5670 5666 5664 5665 5667 5668 5668 5669 5669 5670 5671 5670 5669 5668 5668 5669 5670 5671 5672 5674 5675 5677 5678 5677 5678 5679 5681 5683 5684 5685 5687 5689 5691 5692 5694 5696 5699
5660 5657 5656 5655 5655 5654 5655 5656 5654 5651 5652 5647 5647 5650 5651 5651 5649 5649 5649 5649 5649 5647 5647 5647 5648 5649 5652 5653 5653 5656 5657 5657 5657 5659 5661 5663 5665 5666 5669 5672 5674 5676 5678 5680
5645 5641 5639 5638 5638 5637 5636 5637 5637 5636 5634 5632 5632 5629 5626 5625 5626 5625 5625 5625 5627 5629 5627 5625 5627 5630 5630 5630 5630 5632 5634 5634 5636 5638 5639 5641 5644 5646 5648 5650 5653 5654 5657 5660
5628 5621 5621 5623 5623 5621 5621 5619 5617 5613 5613 5613 5612 5611 5608 5606 5603 5601 5602 5602 5602 5603 5605 5603 5604 5609 5610 5607 5607 5609 5608 5608 5611 5615 5618 5620 5621 5624 5627 5629 5631 5633 5634 5636
5607 5599 5604 5604 5606 5603 5602 5604 5598 5595 5595 5594 5589 5588 5588 5586 5584 5583 5581 5578 5576 5576 5577 5579 5580 5581 5585 5585 5585 5584 5583 5583 5585 5590 5593 5596 5599 5601 5603 5605 5607 5609 5611 5612
5587 5585 5587 5590 5589 5586 5587 5583 5581 5583 5580 5577 5575 5570 5567 5563 5562 5560 5561 5558 5555 5552 5551 5552 5554 5556 5557 5555 5558 5557 5558 5557 5561 5564 5567 5570 5572 5575 5578 5580 5581 5583 5587 5588
5573 5572 5572 5574 5573 5569 5571 5568 5566 5566 5565 5563 5560 5559 5556 5548 5544 5541 5538 5535 5533 5531 5530 5529 5528 5529 5530 5527 5529 5526 5529 5531 5534 5538 5542 5543 5545 5548 5549 5552 5557 5557 5560 5562